Weather in Chupa

Russia / Republic of Karelia     66°16′11″N   33°03′05″E
temp.,
°C
wind,
m/s
gust,
m/s
humid.,
%
clouds,
%
prec.,
mm/h
press.,
hPa
HPBL,
m
6 august, fri
fri600:00+12sw2477100 0.0 101780
03:00+10sw228478 0.0 101836
06:00+12sw247969 0.0 1019108
09:00+16wsw236397 0.0 1019326
12:00+20sw234639 0.0 10201798
15:00+17n236368 0.2 1020202
18:00+19ne114661 0.0 10201474
21:00+14se2376100 0.0 102049
7 august, sat
sat700:00+13s2477100 0.0 102193
03:00+13ssw227897 0.0 102246
06:00+13s127936 0.0 102346
09:00+16s226098 0.0 1022363
12:00+17sse235050 0.0 1023505
15:00+21e23425 0.0 10221941
18:00+20e34470 0.0 10221562
21:00+13ese27710 0.0 1022174
8 august, sun
sun800:00+10e29800 0.0 1023177
03:00+9ene278520 0.0 1023147
06:00+11ene3108598 0.0 1022273
09:00+17e41058100 0.0 1021767
12:00+19ese61047100 0.0 10211310
15:00+17ese51051100 0.0 1021991
18:00+15ese41157100 0.0 1021730
21:00+13ese2671100 0.0 1021195
9 august, mon
mon900:00+12ese2578100 0.0 1021184
03:00+11ene258739 0.0 1020125
06:00+11ene2788100 0.0 1020244
09:00+15e496995 0.0 1020794
12:00+13e4979100 0.0 1020668
15:00+12e3786100 0.0 1020537
18:00+13ese3687100 0.0 1019510
21:00+13e3692100 0.0 1019366
10 august, tue
tue1000:00+12e3797100 0.1 1019337
03:00+12e3797100 0.1 1019324
06:00+12e3896100 0.0 1018385
09:00+14ese4992100 0.0 1017464
12:00+16ese5880100 0.3 1017788
15:00+14e31097100 4.5 1016573
18:00+15se249699 0.0 1016319
21:00+15ese249677 0.0 1017123